PTEMB SBGR-SBDN

Flight info

Callsign PTEMB
Flight time 0h 56m
Altitude 30000
Route EGEVA UM415 ANGIP
Aircraft E195/M-SDE3GILORVW/S

Departure

Time 2026-04-21 02:37
Airport São Paulo/Guarulhos–Governor André Franco Montoro International Airport (SBGR)

Arrival

Time 2026-04-21 03:33
Airport Presidente Prudente Airport (SBDN)
Time Latitude Longitude Altitude Speed Heading
2026-04-21 02:23 -23.42939 -46.48361 2460 ft 0 kts 57°
2026-04-21 02:29 -23.42941 -46.48364 2460 ft 2 kts 57°
2026-04-21 02:30 -23.42947 -46.48380 2463 ft 2 kts 75°
2026-04-21 02:30 -23.42949 -46.48398 2460 ft 2 kts 97°
2026-04-21 02:30 -23.42945 -46.48415 2460 ft 2 kts 123°
2026-04-21 02:30 -23.42938 -46.48424 2467 ft 2 kts 138°
2026-04-21 02:31 -23.42919 -46.48436 2460 ft 2 kts 170°
2026-04-21 02:31 -23.42912 -46.48437 2460 ft 0 kts 187°
2026-04-21 02:31 -23.42911 -46.48437 2460 ft 0 kts 188°
2026-04-21 02:33 -23.42916 -46.48438 2460 ft 2 kts 188°
2026-04-21 02:33 -23.42936 -46.48441 2464 ft 4 kts 188°
2026-04-21 02:33 -23.42969 -46.48446 2463 ft 5 kts 188°
2026-04-21 02:34 -23.42995 -46.48451 2463 ft 6 kts 188°
2026-04-21 02:34 -23.43037 -46.48449 2463 ft 8 kts 171°
2026-04-21 02:34 -23.43107 -46.48428 2460 ft 13 kts 163°
2026-04-21 02:34 -23.43198 -46.48399 2463 ft 14 kts 165°
2026-04-21 02:35 -23.43288 -46.48370 2460 ft 14 kts 163°
2026-04-21 02:35 -23.43302 -46.48366 2464 ft 0 kts 163°
2026-04-21 02:35 -23.43304 -46.48365 2467 ft 0 kts 163°
2026-04-21 02:35 -23.43322 -46.48360 2461 ft 7 kts 163°
2026-04-21 02:36 -23.43394 -46.48334 2463 ft 13 kts 152°
2026-04-21 02:36 -23.43407 -46.48253 2461 ft 11 kts 73°
2026-04-21 02:36 -23.43375 -46.48142 2461 ft 20 kts 73°
2026-04-21 02:36 -23.43287 -46.47811 2459 ft 78 kts 72°
2026-04-21 02:37 -23.43070 -46.47004 2460 ft 142 kts 73°
2026-04-21 02:37 -23.42751 -46.45769 2539 ft 191 kts 75°
2026-04-21 02:37 -23.42360 -46.44319 3242 ft 210 kts 74°
2026-04-21 02:37 -23.41905 -46.42704 3806 ft 229 kts 75°
2026-04-21 02:38 -23.41419 -46.41071 4675 ft 221 kts 73°
2026-04-21 02:38 -23.40935 -46.39518 5550 ft 216 kts 73°
2026-04-21 02:38 -23.40496 -46.38053 6141 ft 224 kts 74°
2026-04-21 02:38 -23.40300 -46.37354 6398 ft 228 kts 77°
2026-04-21 02:39 -23.40214 -46.36899 6576 ft 228 kts 84°
2026-04-21 02:39 -23.40312 -46.35172 7118 ft 237 kts 108°
2026-04-21 02:39 -23.40845 -46.33420 7670 ft 255 kts 111°
2026-04-21 02:39 -23.41477 -46.31533 8162 ft 274 kts 111°
2026-04-21 02:40 -23.42149 -46.29545 8830 ft 285 kts 111°
2026-04-21 02:40 -23.42892 -46.27502 9183 ft 296 kts 121°
2026-04-21 02:40 -23.44289 -46.25907 10236 ft 287 kts 149°
2026-04-21 02:40 -23.46160 -46.25081 10971 ft 298 kts 172°
2026-04-21 02:41 -23.48255 -46.25199 11676 ft 307 kts 189°
2026-04-21 02:41 -23.50362 -46.25637 12554 ft 310 kts 191°
2026-04-21 02:41 -23.52485 -46.26168 13440 ft 314 kts 194°
2026-04-21 02:41 -23.54459 -46.27221 14260 ft 322 kts 217°
2026-04-21 02:42 -23.55925 -46.29083 15067 ft 330 kts 237°
2026-04-21 02:42 -23.56776 -46.31435 15803 ft 339 kts 251°
2026-04-21 02:42 -23.57362 -46.33966 16112 ft 349 kts 253°
2026-04-21 02:42 -23.57872 -46.36548 16112 ft 347 kts 255°
2026-04-21 02:43 -23.58339 -46.39114 16063 ft 345 kts 255°
2026-04-21 02:43 -23.58804 -46.41685 15992 ft 343 kts 255°
2026-04-21 02:43 -23.59270 -46.44231 15999 ft 343 kts 255°
2026-04-21 02:43 -23.59751 -46.46779 16015 ft 343 kts 255°
2026-04-21 02:44 -23.60231 -46.49325 16036 ft 343 kts 255°
2026-04-21 02:44 -23.60709 -46.51867 16651 ft 343 kts 255°
2026-04-21 02:44 -23.61148 -46.54442 17433 ft 348 kts 257°
2026-04-21 02:44 -23.61519 -46.57071 18151 ft 354 kts 258°
2026-04-21 02:45 -23.61894 -46.59745 18789 ft 359 kts 257°
2026-04-21 02:45 -23.62280 -46.62438 19405 ft 362 kts 257°
2026-04-21 02:45 -23.62784 -46.65134 19985 ft 363 kts 248°
2026-04-21 02:45 -23.63917 -46.67574 20582 ft 361 kts 236°
2026-04-21 02:46 -23.65255 -46.69909 21173 ft 365 kts 235°
2026-04-21 02:46 -23.66627 -46.72253 21753 ft 369 kts 235°
2026-04-21 02:46 -23.68017 -46.74619 22335 ft 372 kts 235°
2026-04-21 02:46 -23.69124 -46.77200 22842 ft 382 kts 253°
2026-04-21 02:47 -23.69347 -46.80104 23386 ft 391 kts 274°
2026-04-21 02:47 -23.68647 -46.82950 23859 ft 400 kts 294°
2026-04-21 02:47 -23.67209 -46.85561 24310 ft 404 kts 301°
2026-04-21 02:47 -23.65627 -46.88104 24702 ft 406 kts 302°
2026-04-21 02:48 -23.64021 -46.90646 25158 ft 408 kts 302°
2026-04-21 02:48 -23.62405 -46.93196 25574 ft 410 kts 303°
2026-04-21 02:48 -23.60771 -46.95757 26004 ft 412 kts 303°
2026-04-21 02:48 -23.59119 -46.98320 26435 ft 414 kts 303°
2026-04-21 02:49 -23.57448 -47.00887 26847 ft 416 kts 303°
2026-04-21 02:49 -23.55754 -47.03459 27238 ft 419 kts 304°
2026-04-21 02:49 -23.54044 -47.06036 27611 ft 422 kts 304°
2026-04-21 02:49 -23.52307 -47.08630 27978 ft 424 kts 304°
2026-04-21 02:50 -23.50560 -47.11221 28341 ft 426 kts 304°
2026-04-21 02:50 -23.48845 -47.13868 28664 ft 428 kts 302°
2026-04-21 02:50 -23.47155 -47.16553 29004 ft 431 kts 302°
2026-04-21 02:50 -23.45457 -47.19248 29368 ft 432 kts 302°
2026-04-21 02:51 -23.43750 -47.21943 29672 ft 434 kts 302°
2026-04-21 02:51 -23.42027 -47.24654 29970 ft 436 kts 303°
2026-04-21 02:51 -23.40300 -47.27367 30218 ft 439 kts 303°
2026-04-21 02:52 -23.36753 -47.32932 30150 ft 457 kts 303°
2026-04-21 02:52 -23.33059 -47.38712 30090 ft 471 kts 303°
2026-04-21 02:53 -23.29292 -47.44595 30080 ft 475 kts 303°
2026-04-21 02:53 -23.25505 -47.50510 30070 ft 477 kts 303°
2026-04-21 02:54 -23.21715 -47.56423 30073 ft 477 kts 303°
2026-04-21 02:54 -23.18269 -47.62538 30076 ft 473 kts 289°
2026-04-21 02:54 -23.17526 -47.65997 30100 ft 471 kts 274°
2026-04-21 02:55 -23.17328 -47.69552 30084 ft 472 kts 271°
2026-04-21 02:55 -23.17088 -47.76661 30081 ft 471 kts 271°
2026-04-21 02:56 -23.16834 -47.83765 30077 ft 470 kts 271°
2026-04-21 02:56 -23.16432 -47.94404 30082 ft 470 kts 271°
2026-04-21 02:57 -23.16159 -48.01496 30086 ft 470 kts 271°
2026-04-21 02:57 -23.15886 -48.08545 30076 ft 466 kts 271°
2026-04-21 02:58 -23.15609 -48.15584 30085 ft 467 kts 271°
2026-04-21 02:58 -23.15328 -48.22630 30082 ft 467 kts 271°
2026-04-21 02:59 -23.15046 -48.29635 30086 ft 463 kts 271°
2026-04-21 02:59 -23.14763 -48.36631 30084 ft 464 kts 271°
2026-04-21 03:00 -23.14475 -48.43634 30085 ft 464 kts 271°
2026-04-21 03:00 -23.14186 -48.50615 30088 ft 462 kts 270°
2026-04-21 03:01 -23.13463 -48.57550 30102 ft 466 kts 284°
2026-04-21 03:01 -23.11396 -48.64245 30079 ft 467 kts 287°
2026-04-21 03:02 -23.09291 -48.70869 30077 ft 467 kts 286°
2026-04-21 03:02 -23.07176 -48.77534 30080 ft 467 kts 285°
2026-04-21 03:03 -23.05062 -48.84201 30076 ft 467 kts 285°
2026-04-21 03:03 -23.02944 -48.90866 30080 ft 467 kts 285°
2026-04-21 03:04 -23.00822 -48.97533 30079 ft 467 kts 286°
2026-04-21 03:04 -22.98696 -49.04199 30079 ft 467 kts 286°
2026-04-21 03:05 -22.96568 -49.10859 30072 ft 467 kts 285°
2026-04-21 03:05 -22.94434 -49.17516 30074 ft 468 kts 286°
2026-04-21 03:06 -22.92007 -49.24083 30068 ft 469 kts 288°
2026-04-21 03:06 -22.89550 -49.30645 30062 ft 469 kts 288°
2026-04-21 03:07 -22.87453 -49.37312 30058 ft 467 kts 284°
2026-04-21 03:07 -22.85438 -49.44007 30065 ft 467 kts 284°
2026-04-21 03:08 -22.83338 -49.50675 30068 ft 468 kts 286°
2026-04-21 03:08 -22.81093 -49.57296 30064 ft 468 kts 286°
2026-04-21 03:09 -22.78860 -49.63926 30056 ft 468 kts 286°
2026-04-21 03:09 -22.76632 -49.70555 30060 ft 468 kts 286°
2026-04-21 03:10 -22.74404 -49.77187 30061 ft 468 kts 286°
2026-04-21 03:10 -22.72185 -49.83770 30053 ft 468 kts 286°
2026-04-21 03:11 -22.69944 -49.90390 30053 ft 469 kts 286°
2026-04-21 03:11 -22.67704 -49.96995 30054 ft 466 kts 286°
2026-04-21 03:12 -22.65462 -50.03604 30051 ft 468 kts 286°
2026-04-21 03:12 -22.63215 -50.10214 30051 ft 468 kts 286°
2026-04-21 03:13 -22.60978 -50.16833 30045 ft 468 kts 286°
2026-04-21 03:13 -22.58741 -50.23452 30044 ft 469 kts 286°
2026-04-21 03:14 -22.57665 -50.26746 29648 ft 457 kts 283°
2026-04-21 03:14 -22.56860 -50.29984 29363 ft 438 kts 281°
2026-04-21 03:14 -22.56120 -50.33156 28687 ft 431 kts 281°
2026-04-21 03:14 -22.55371 -50.36265 28100 ft 423 kts 282°
2026-04-21 03:15 -22.54619 -50.39317 27573 ft 416 kts 282°
2026-04-21 03:15 -22.53870 -50.42311 26977 ft 410 kts 282°
2026-04-21 03:15 -22.53128 -50.45259 26478 ft 403 kts 283°
2026-04-21 03:15 -22.52393 -50.48168 25910 ft 399 kts 283°
2026-04-21 03:16 -22.51662 -50.51051 25413 ft 396 kts 283°
2026-04-21 03:16 -22.50935 -50.53926 24869 ft 396 kts 283°
2026-04-21 03:16 -22.50207 -50.56799 24348 ft 395 kts 283°
2026-04-21 03:16 -22.49482 -50.59663 23814 ft 394 kts 284°
2026-04-21 03:17 -22.48757 -50.62513 23257 ft 392 kts 283°
2026-04-21 03:17 -22.48039 -50.65331 22782 ft 387 kts 283°
2026-04-21 03:17 -22.47330 -50.68121 22260 ft 384 kts 284°
2026-04-21 03:17 -22.46630 -50.70862 21768 ft 382 kts 284°
2026-04-21 03:18 -22.45926 -50.73629 21260 ft 382 kts 284°
2026-04-21 03:18 -22.45221 -50.76392 20760 ft 381 kts 284°
2026-04-21 03:18 -22.44515 -50.79149 20232 ft 381 kts 284°
2026-04-21 03:18 -22.43814 -50.81904 19736 ft 379 kts 284°
2026-04-21 03:19 -22.43112 -50.84646 19235 ft 378 kts 284°
2026-04-21 03:19 -22.42412 -50.87384 18732 ft 377 kts 284°
2026-04-21 03:19 -22.41714 -50.90108 18224 ft 375 kts 284°
2026-04-21 03:19 -22.41023 -50.92811 17724 ft 372 kts 285°
2026-04-21 03:20 -22.40338 -50.95488 17235 ft 369 kts 285°
2026-04-21 03:20 -22.39883 -50.97259 16902 ft 368 kts 285°
2026-04-21 03:20 -22.39225 -50.99820 16963 ft 367 kts 285°
2026-04-21 03:20 -22.38525 -51.02518 15555 ft 371 kts 285°
2026-04-21 03:21 -22.37855 -51.05127 15535 ft 357 kts 285°
2026-04-21 03:21 -22.37183 -51.07749 14979 ft 365 kts 285°
2026-04-21 03:21 -22.36508 -51.10378 14512 ft 360 kts 285°
2026-04-21 03:21 -22.35841 -51.12967 14040 ft 356 kts 285°
2026-04-21 03:22 -22.35180 -51.15534 13527 ft 353 kts 285°
2026-04-21 03:22 -22.34535 -51.18034 13061 ft 337 kts 285°
2026-04-21 03:22 -22.33921 -51.20415 12664 ft 324 kts 286°
2026-04-21 03:22 -22.33319 -51.22743 12234 ft 321 kts 286°
2026-04-21 03:23 -22.32719 -51.25061 11820 ft 319 kts 286°
2026-04-21 03:23 -22.32124 -51.27359 11393 ft 317 kts 286°
2026-04-21 03:23 -22.31533 -51.29647 10978 ft 315 kts 286°
2026-04-21 03:23 -22.30945 -51.31918 10565 ft 314 kts 286°
2026-04-21 03:24 -22.30357 -51.34182 10146 ft 312 kts 286°
2026-04-21 03:24 -22.29784 -51.36385 9723 ft 310 kts 286°
2026-04-21 03:24 -22.29524 -51.37401 9525 ft 309 kts 286°
2026-04-21 03:24 -22.29304 -51.38269 9389 ft 308 kts 286°
2026-04-21 03:25 -22.28737 -51.40456 8981 ft 300 kts 286°
2026-04-21 03:25 -22.28167 -51.42607 8595 ft 297 kts 286°
2026-04-21 03:25 -22.27603 -51.44740 8203 ft 295 kts 286°
2026-04-21 03:25 -22.27047 -51.46862 7808 ft 293 kts 286°
2026-04-21 03:26 -22.26493 -51.48963 7412 ft 287 kts 287°
2026-04-21 03:26 -22.25961 -51.51004 7062 ft 281 kts 286°
2026-04-21 03:26 -22.25445 -51.53008 6695 ft 281 kts 286°
2026-04-21 03:26 -22.24915 -51.55049 6239 ft 284 kts 287°
2026-04-21 03:27 -22.24382 -51.57093 5841 ft 283 kts 287°
2026-04-21 03:27 -22.23850 -51.59131 5481 ft 277 kts 287°
2026-04-21 03:27 -22.23328 -51.61144 5117 ft 274 kts 287°
2026-04-21 03:27 -22.22533 -51.62957 4694 ft 271 kts 313°
2026-04-21 03:28 -22.20995 -51.64063 4371 ft 261 kts 349°
2026-04-21 03:28 -22.19243 -51.64027 3975 ft 250 kts 22°
2026-04-21 03:28 -22.17775 -51.63199 3765 ft 234 kts 36°
2026-04-21 03:28 -22.16475 -51.62238 3539 ft 222 kts 35°
2026-04-21 03:29 -22.15294 -51.61232 3373 ft 211 kts 56°
2026-04-21 03:29 -22.14907 -51.59820 3258 ft 189 kts 94°
2026-04-21 03:29 -22.15108 -51.58464 3237 ft 183 kts 102°
2026-04-21 03:29 -22.15388 -51.57132 3293 ft 180 kts 100°
2026-04-21 03:30 -22.15613 -51.55826 3232 ft 169 kts 99°
2026-04-21 03:30 -22.15806 -51.54643 3111 ft 156 kts 99°
2026-04-21 03:30 -22.15971 -51.53501 2898 ft 150 kts 98°
2026-04-21 03:30 -22.16117 -51.52409 2884 ft 144 kts 98°
2026-04-21 03:31 -22.16278 -51.51379 2821 ft 138 kts 98°
2026-04-21 03:31 -22.16422 -51.50363 2635 ft 137 kts 97°
2026-04-21 03:31 -22.16564 -51.49368 2425 ft 133 kts 98°
2026-04-21 03:31 -22.16712 -51.48383 2247 ft 134 kts 98°
2026-04-21 03:32 -22.16844 -51.47381 2067 ft 140 kts 98°
2026-04-21 03:32 -22.16976 -51.46320 1929 ft 146 kts 97°
2026-04-21 03:32 -22.17113 -51.45251 1787 ft 141 kts 97°
2026-04-21 03:32 -22.17259 -51.44206 1586 ft 140 kts 98°
2026-04-21 03:33 -22.17394 -51.43262 1450 ft 117 kts 98°
2026-04-21 03:33 -22.17494 -51.42541 1462 ft 74 kts 99°
2026-04-21 03:33 -22.17552 -51.42125 1467 ft 48 kts 99°
2026-04-21 03:33 -22.17597 -51.41800 1477 ft 41 kts 98°
2026-04-21 03:34 -22.17633 -51.41551 1483 ft 18 kts 99°
2026-04-21 03:34 -22.17674 -51.41481 1483 ft 10 kts 151°
2026-04-21 03:34 -22.17734 -51.41488 1486 ft 1 kts 212°
2026-04-21 03:34 -22.17744 -51.41499 1481 ft 3 kts 231°
2026-04-21 03:35 -22.17750 -51.41507 1484 ft 2 kts 233°
2026-04-21 03:35 -22.17763 -51.41535 1482 ft 6 kts 251°
2026-04-21 03:35 -22.17768 -51.41585 1485 ft 8 kts 274°
2026-04-21 03:35 -22.17758 -51.41653 1482 ft 10 kts 279°
2026-04-21 03:36 -22.17748 -51.41729 1483 ft 8 kts 275°
2026-04-21 03:36 -22.17749 -51.41737 1483 ft 0 kts 253°
2026-04-21 03:36 -22.17748 -51.41743 1483 ft 3 kts 277°
2026-04-21 03:37 -22.17745 -51.41770 1478 ft 3 kts 264°
2026-04-21 03:37 -22.17753 -51.41781 1477 ft 1 kts 220°
2026-04-21 03:37 -22.17758 -51.41785 1480 ft 1 kts 217°
2026-04-21 03:37 -22.17763 -51.41787 1482 ft 1 kts 205°
2026-04-21 03:38 -22.17774 -51.41790 1486 ft 0 kts 193°
2026-04-21 03:38 -22.17781 -51.41790 1475 ft 1 kts 187°
2026-04-21 03:39 -22.17784 -51.41791 1477 ft 2 kts 187°
2026-04-21 03:39 -22.17785 -51.41791 1477 ft 0 kts 187°